Zurück zum Katalog

SCOUT A DEB

AktivPO
NORAD 2702·DEBRIS·🇺🇸 United States

Gestartet Aug 18, 1966 von Vandenberg Space Force Base

Loading…

Nächste Überflüge (nächste 24 Stunden)

TLE

AktuellSource: Space-Track

Epoche: Sep 14, 2026, 10:45 UTC

1 02702U 66076D   26257.44804802  .00000114  00000-0  19251-3 0  9995
2 02702  88.5625 245.2455 0089086  26.5362 125.6289 13.36573634908257

Verfolge SCOUT A DEB in Echtzeit mit AllMySat

Download on the App Store